Weather History for KHRX - October, 2012

Change the Weather History Date:

Thursday, October 11, 2012

  Actual Average (KAMA) Record (KAMA)
Temperature  
Mean Temperature 64 °F 60 °F  
Max Temperature 82 °F 73 °F 92 °F (1962)
Min Temperature 46 °F 47 °F 27 °F (2009)
Degree Days  
Heating Degree Days 1 6  
Month to date heating degree days 54  
Since 1 July heating degree days 98  
Cooling Degree Days 0 1  
Month to date cooling degree days 17  
Year to date cooling degree days 1387  
Growing Degree Days 14 (Base 50)    
Moisture  
Dew Point 53 °F    
Average Humidity 70    
Maximum Humidity 94    
Minimum Humidity 37    
Precipitation  
Precipitation 0.00 in 0.06 in 1.07 in (1930)
Month to date precipitation 0.66  
Year to date precipitation 17.85  
Snow  
Snow 0.00 in 0.00 in T in (1986)
Month to date snowfall 0.0  
Since 1 July snowfall T  
Since 1 September snowfall T  
Snow Depth -    
Sea Level Pressure  
Sea Level Pressure 30.11 in    
Wind  
Wind Speed 10 mph (SW)    
Max Wind Speed 20 mph    
Max Gust Speed 23 mph    
Visibility 9 miles    
Events      
T = Trace of Precipitation, MM = Missing Value Source: NWS Daily Summary

Daily Weather History Graph

Daily Weather History Graph

Search for Another Location

Airport or City:

Trip Planner

Search our weather history database for the weather conditions in past years. The results will help you decide how hot, cold, wet, or windy it might be!

Date:

Astronomy

Oct. 11, 2012 Rise Set
Actual Time 7:52 AM CDT 7:18 PM CDT
Civil Twilight 7:26 AM CDT 7:44 PM CDT
Nautical Twilight 6:57 AM CDT 8:13 PM CDT
Astronomical Twilight 6:28 AM CDT 8:42 PM CDT
Moon 3:42 AM CDT (10/11) 4:48 PM CDT (10/11)
Length of Visible Light 12h 17m
Length of Day
11h 26m
Waning Crescent, 18% of the Moon is Illuminated
Oct 11
Waning Crescent
Oct 15
New
Oct 21
First Quarter
Oct 29
Full
Nov 6
Last Quarter

Hourly Weather History & Observations

Time (CDT) Temp. Windchill Dew Point Humidity Pressure Visibility Wind Dir Wind Speed Gust Speed Precip Events Conditions
12:15 AM 46.4 °F 42.4 °F 44.6 °F 93% 30.13 in 10.0 mi South 8.1 mph - N/A   Clear
12:35 AM 50.0 °F - 44.6 °F 82% 30.13 in 10.0 mi SSW 9.2 mph - N/A   Clear
12:55 AM 50.0 °F - 46.4 °F 87% 30.12 in 10.0 mi SSW 12.7 mph - N/A   Clear
1:15 AM 50.0 °F - 46.4 °F 87% 30.12 in 10.0 mi SSW 11.5 mph - N/A   Clear
1:35 AM 50.0 °F - 46.4 °F 87% 30.12 in 10.0 mi SSW 10.4 mph - N/A   Clear
1:55 AM 50.0 °F - 46.4 °F 87% 30.12 in 10.0 mi SSW 11.5 mph 17.3 mph N/A   Clear
2:15 AM 50.0 °F - 46.4 °F 87% 30.13 in 10.0 mi SSW 12.7 mph 17.3 mph N/A   Clear
2:35 AM 50.0 °F - 46.4 °F 87% 30.13 in 10.0 mi SSW 11.5 mph 17.3 mph N/A   Clear
2:55 AM 50.0 °F - 46.4 °F 87% 30.12 in 10.0 mi SSW 11.5 mph 18.4 mph N/A   Clear
3:15 AM 50.0 °F - 46.4 °F 87% 30.12 in 10.0 mi SW 13.8 mph 18.4 mph N/A   Clear
3:55 AM 53.6 °F - 50.0 °F 88% 30.12 in 10.0 mi SSW 11.5 mph 16.1 mph N/A   Mostly Cloudy
4:15 AM 53.6 °F - 50.0 °F 88% 30.11 in 10.0 mi SSW 10.4 mph - N/A   Overcast
4:35 AM 53.6 °F - 50.0 °F 88% 30.11 in 10.0 mi SW 5.8 mph - N/A   Overcast
4:55 AM 53.6 °F - 50.0 °F 88% 30.10 in 10.0 mi West 3.5 mph - N/A   Scattered Clouds
5:15 AM 53.6 °F - 50.0 °F 88% 30.10 in 10.0 mi SSW 8.1 mph - N/A   Scattered Clouds
5:35 AM 53.6 °F - 50.0 °F 88% 30.10 in 7.0 mi SSW 9.2 mph - N/A   Scattered Clouds
5:55 AM 53.6 °F - 50.0 °F 88% 30.10 in 7.0 mi SW 6.9 mph - N/A   Clear
6:15 AM 53.6 °F - 50.0 °F 88% 30.10 in 7.0 mi WSW 5.8 mph - N/A   Scattered Clouds
6:35 AM 53.6 °F - 50.0 °F 88% 30.10 in 7.0 mi SSW 6.9 mph - N/A   Scattered Clouds
7:15 AM 53.6 °F - 50.0 °F 88% 30.11 in 7.0 mi SW 3.5 mph - N/A   Mostly Cloudy
7:55 AM 53.6 °F - 51.8 °F 94% 30.12 in 7.0 mi WNW 5.8 mph - N/A   Scattered Clouds
8:15 AM 53.6 °F - 51.8 °F 94% 30.12 in 5.0 mi West 5.8 mph - N/A   Scattered Clouds
8:35 AM 55.4 °F - 51.8 °F 88% 30.13 in 7.0 mi SW 3.5 mph - N/A   Scattered Clouds
8:55 AM 55.4 °F - 51.8 °F 88% 30.13 in 7.0 mi SW 4.6 mph - N/A   Mostly Cloudy
9:15 AM 59.0 °F - 53.6 °F 82% 30.14 in 7.0 mi SW 5.8 mph - N/A   Scattered Clouds
9:35 AM 60.8 °F - 53.6 °F 77% 30.14 in 7.0 mi SW 9.2 mph - N/A   Scattered Clouds
9:55 AM 60.8 °F - 53.6 °F 77% 30.15 in 10.0 mi SW 10.4 mph - N/A   Mostly Cloudy
10:15 AM 62.6 °F - 55.4 °F 77% 30.14 in 10.0 mi SSW 13.8 mph 17.3 mph N/A   Scattered Clouds
10:35 AM 66.2 °F - 55.4 °F 68% 30.15 in 10.0 mi SW 15.0 mph 21.9 mph N/A   Scattered Clouds
10:55 AM 68.0 °F - 55.4 °F 64% 30.15 in 10.0 mi SW 16.1 mph - N/A   Scattered Clouds
11:15 AM 68.0 °F - 55.4 °F 64% 30.15 in 10.0 mi SW 13.8 mph - N/A   Scattered Clouds
11:35 AM 69.8 °F - 55.4 °F 60% 30.14 in 10.0 mi SW 17.3 mph 23.0 mph N/A   Scattered Clouds
11:55 AM 71.6 °F - 55.4 °F 57% 30.14 in 10.0 mi WSW 16.1 mph - N/A   Clear
12:15 PM 73.4 °F - 57.2 °F 57% 30.13 in 10.0 mi SW 13.8 mph - N/A   Clear
12:55 PM 73.4 °F - 55.4 °F 53% 30.13 in 10.0 mi SW 13.8 mph 21.9 mph N/A   Clear
1:15 PM 73.4 °F - 55.4 °F 53% 30.13 in 10.0 mi SW 16.1 mph 23.0 mph N/A   Clear
1:55 PM 77.0 °F - 55.4 °F 47% 30.10 in 10.0 mi WSW 12.7 mph 18.4 mph N/A   Clear
2:15 PM 78.8 °F - 55.4 °F 44% 30.09 in 10.0 mi WSW 9.2 mph 16.1 mph N/A   Clear
2:55 PM 80.6 °F - 55.4 °F 42% 30.07 in 10.0 mi SSW 9.2 mph 16.1 mph N/A   Clear
3:15 PM 82.4 °F - 53.6 °F 37% 30.06 in 10.0 mi WSW 11.5 mph 19.6 mph N/A   Clear
3:55 PM 82.4 °F - 53.6 °F 37% 30.05 in 10.0 mi South 12.7 mph 19.6 mph N/A   Clear
4:15 PM 82.4 °F - 53.6 °F 37% 30.05 in 10.0 mi SSW 16.1 mph 20.7 mph N/A   Clear
4:35 PM 80.6 °F - 53.6 °F 39% 30.05 in 10.0 mi SSW 13.8 mph - N/A   Clear
4:55 PM 80.6 °F - 53.6 °F 39% 30.05 in 10.0 mi South 19.6 mph - N/A   Clear
5:15 PM 80.6 °F - 53.6 °F 39% 30.05 in 10.0 mi SSW 18.4 mph - N/A   Clear
6:15 PM 77.0 °F - 55.4 °F 47% 30.06 in 10.0 mi SSW 16.1 mph - N/A   Clear
6:35 PM 77.0 °F - 55.4 °F 47% 30.07 in 10.0 mi SSW 16.1 mph 23.0 mph N/A   Clear
6:55 PM 73.4 °F - 55.4 °F 53% 30.08 in 10.0 mi SSW 12.7 mph - N/A   Clear
7:15 PM 73.4 °F - 55.4 °F 53% 30.08 in 10.0 mi SSW 10.4 mph - N/A   Clear
7:35 PM 73.4 °F - 55.4 °F 53% 30.08 in 10.0 mi South 9.2 mph - N/A   Clear
7:55 PM 71.6 °F - 59.0 °F 64% 30.09 in 10.0 mi South 9.2 mph - N/A   Clear
8:15 PM 71.6 °F - 59.0 °F 64% 30.10 in 10.0 mi South 9.2 mph - N/A   Clear
8:35 PM 71.6 °F - 59.0 °F 64% 30.11 in 10.0 mi South 5.8 mph - N/A   Mostly Cloudy
8:55 PM 71.6 °F - 59.0 °F 64% 30.11 in 10.0 mi SSW 9.2 mph - N/A   Scattered Clouds
9:15 PM 71.6 °F - 59.0 °F 64% 30.12 in 10.0 mi SSW 10.4 mph - N/A   Clear
9:35 PM 69.8 °F - 59.0 °F 68% 30.12 in 10.0 mi SSW 8.1 mph - N/A   Mostly Cloudy
9:55 PM 69.8 °F - 59.0 °F 68% 30.13 in 10.0 mi SSW 8.1 mph - N/A   Mostly Cloudy
10:15 PM 69.8 °F - 59.0 °F 68% 30.13 in 10.0 mi SSW 11.5 mph 17.3 mph N/A   Scattered Clouds
10:55 PM 68.0 °F - 59.0 °F 73% 30.13 in 10.0 mi SSW 16.1 mph - N/A   Clear
11:15 PM 68.0 °F - 59.0 °F 73% 30.14 in 10.0 mi SSW 12.7 mph 18.4 mph N/A   Scattered Clouds